TimeCST,TemperatureF,Dew PointF,Humidity,Sea Level PressureIn,VisibilityMPH,Wind Direction,Wind SpeedMPH,Gust SpeedMPH,PrecipitationIn,Events,Conditions,WindDirDegrees,DateUTC
12:55 AM,41.5,41.4,99,30.26,10.0,NNE,4.6,-,N/A,,Clear,30,2012-11-17 06:55:00
1:55 AM,41.2,41.2,100,30.26,10.0,North,4.6,-,N/A,,Clear,10,2012-11-17 07:55:00
2:55 AM,40.6,40.6,100,30.27,10.0,North,5.8,-,N/A,,Clear,360,2012-11-17 08:55:00
3:55 AM,40.1,40.1,100,30.28,8.0,North,6.9,-,N/A,,Clear,360,2012-11-17 09:55:00
4:55 AM,40.6,40.6,100,30.28,10.0,North,8.1,-,N/A,,Clear,360,2012-11-17 10:55:00
5:55 AM,39.2,39.2,100,30.30,10.0,NNE,4.6,-,N/A,,Clear,30,2012-11-17 11:55:00
6:55 AM,42.8,42.8,100,30.31,10.0,NNE,8.1,-,N/A,,Clear,20,2012-11-17 12:55:00
7:55 AM,48.2,47.7,98,30.32,10.0,NNE,8.1,-,N/A,,Clear,20,2012-11-17 13:55:00
8:01 AM,48.2,48.2,100,30.32,10.0,NNE,8.1,-,N/A,,Light Drizzle,30,2012-11-17 14:01:00
8:11 AM,50.0,48.2,94,30.32,10.0,NE,9.2,-,N/A,,Clear,40,2012-11-17 14:11:00
8:55 AM,54.3,48.0,79,30.32,10.0,NE,11.5,19.6,0.00,,Clear,50,2012-11-17 14:55:00
9:55 AM,58.3,47.3,67,30.31,10.0,NE,11.5,-,N/A,,Clear,50,2012-11-17 15:55:00
10:55 AM,61.5,47.3,60,30.30,10.0,NE,11.5,-,N/A,,Clear,50,2012-11-17 16:55:00
10:56 AM,60.8,46.4,59,30.30,10.0,NE,10.4,-,N/A,,Light Drizzle,40,2012-11-17 16:56:00
11:06 AM,60.8,46.4,59,30.30,10.0,NNE,8.1,-,N/A,,Clear,30,2012-11-17 17:06:00
11:08 AM,60.8,46.4,59,30.30,10.0,NNE,11.5,-,N/A,,Light Drizzle,30,2012-11-17 17:08:00
11:55 AM,63.1,46.2,54,30.27,10.0,Variable,6.9,-,0.00,,Light Drizzle,0,2012-11-17 17:55:00
11:57 AM,62.6,46.4,55,30.27,10.0,NNE,12.7,-,N/A,,Clear,30,2012-11-17 17:57:00
11:58 AM,62.6,46.4,55,30.27,10.0,NE,12.7,-,N/A,,Light Drizzle,40,2012-11-17 17:58:00
12:28 PM,64.4,46.4,52,30.26,10.0,NE,10.4,-,N/A,,Clear,50,2012-11-17 18:28:00
12:31 PM,64.4,46.4,52,30.26,10.0,ENE,11.5,-,N/A,,Light Drizzle,70,2012-11-17 18:31:00
12:55 PM,64.6,46.4,52,30.25,10.0,NNE,12.7,18.4,0.00,,Light Drizzle,30,2012-11-17 18:55:00
1:37 PM,64.4,46.4,52,30.23,10.0,NNE,9.2,-,N/A,,Clear,20,2012-11-17 19:37:00
1:48 PM,64.4,46.4,52,30.23,10.0,NNE,16.1,-,N/A,,Light Drizzle,20,2012-11-17 19:48:00
1:55 PM,64.9,46.6,51,30.23,10.0,NNE,12.7,-,0.00,,Light Drizzle,30,2012-11-17 19:55:00
2:14 PM,64.4,46.4,52,30.23,10.0,North,15.0,-,N/A,,Clear,360,2012-11-17 20:14:00
2:18 PM,64.4,46.4,52,30.23,10.0,NNE,13.8,-,N/A,,Light Drizzle,30,2012-11-17 20:18:00
2:50 PM,64.4,46.4,52,30.23,10.0,NNE,10.4,-,N/A,,Clear,30,2012-11-17 20:50:00
2:54 PM,64.4,46.4,52,30.23,10.0,NNE,13.8,-,N/A,,Light Drizzle,20,2012-11-17 20:54:00
2:55 PM,64.8,46.6,52,30.23,10.0,NNE,11.5,-,0.00,,Light Drizzle,20,2012-11-17 20:55:00
3:12 PM,64.4,46.4,52,30.23,10.0,North,11.5,-,N/A,,Clear,10,2012-11-17 21:12:00
3:14 PM,64.4,46.4,52,30.23,10.0,NNE,11.5,-,N/A,,Light Drizzle,30,2012-11-17 21:14:00
3:15 PM,64.4,46.4,52,30.23,10.0,NE,11.5,-,N/A,,Clear,40,2012-11-17 21:15:00
3:16 PM,64.4,46.4,52,30.23,10.0,NE,11.5,-,N/A,,Light Drizzle,40,2012-11-17 21:16:00
3:40 PM,62.6,46.4,55,30.24,10.0,NE,9.2,-,N/A,,Clear,40,2012-11-17 21:40:00
3:47 PM,62.6,46.4,55,30.24,10.0,NNE,11.5,-,N/A,,Light Drizzle,30,2012-11-17 21:47:00
3:55 PM,62.6,46.0,55,30.24,10.0,NNE,8.1,-,0.00,,Light Drizzle,20,2012-11-17 21:55:00
3:59 PM,62.6,46.4,55,30.24,10.0,NNE,10.4,-,N/A,,Clear,30,2012-11-17 21:59:00
4:09 PM,62.6,46.4,55,30.24,10.0,NNE,11.5,-,N/A,Rain,Light Rain,30,2012-11-17 22:09:00
4:11 PM,62.6,46.4,55,30.24,10.0,NE,10.4,-,N/A,,Clear,40,2012-11-17 22:11:00
4:55 PM,58.5,45.7,62,30.25,10.0,NNE,9.2,-,0.00,,Clear,30,2012-11-17 22:55:00
5:55 PM,52.7,44.8,74,30.26,10.0,NNE,6.9,-,N/A,,Clear,30,2012-11-17 23:55:00
6:55 PM,49.8,44.6,82,30.28,10.0,NNE,8.1,-,N/A,,Partly Cloudy,20,2012-11-18 00:55:00
7:55 PM,52.9,44.4,73,30.30,10.0,NNE,5.8,-,N/A,,Mostly Cloudy,20,2012-11-18 01:55:00
8:55 PM,53.2,42.1,66,30.30,10.0,NNE,6.9,-,N/A,,Scattered Clouds,30,2012-11-18 02:55:00
9:55 PM,52.2,41.2,66,30.29,9.0,NNE,8.1,-,N/A,,Partly Cloudy,30,2012-11-18 03:55:00
10:55 PM,52.2,41.0,66,30.28,10.0,NNE,8.1,-,N/A,,Overcast,30,2012-11-18 04:55:00
11:55 PM,49.6,40.1,70,30.27,10.0,NNE,6.9,-,N/A,,Partly Cloudy,20,2012-11-18 05:55:00